THURAYA-3

Last updated on Tue Sep 16 2025 00:02:46 GMT+0000 (Coordinated Universal Time)

1 32404U 08001A 25258.38999523 -.00000316 00000+0 00000+0 0 9991 2 32404 5.5300 35.1337 0002275 145.3718 52.9994 1.00270856 64732
UTC large
Height (km)
Speed (km/s)
/
Latitude / Longitude
Inclination (degrees)
Orbital Period (minutes)
Azimuth
Elevation
Range (km)
Doppler Factor

Next 0 passes for location: London (51.5072 / 0.1276)

Sorry there are no passes over London.